Weather History for KPAH - October, 2014

Change the Weather History Date:

Wednesday, October 15, 2014

  Actual Average Record
Temperature  
Mean Temperature 55 °F 59 °F  
Max Temperature 57 °F 71 °F 87 °F (1950)
Min Temperature 53 °F 47 °F 32 °F (1991)
Degree Days  
Heating Degree Days 10 7  
Month to date heating degree days 68 83  
Since 1 July heating degree days 89 122  
Cooling Degree Days 0 1  
Month to date cooling degree days 37 26  
Year to date cooling degree days 1710 1526  
Growing Degree Days 5 (Base 50)    
Moisture  
Dew Point 52 °F    
Average Humidity 87    
Maximum Humidity 93    
Minimum Humidity 80    
Precipitation  
Precipitation 0.04 in 0.13 in 2.41 in (1992)
Month to date precipitation 3.14 1.95  
Year to date precipitation 40.88 38.18  
Snow  
Snow 0.00 in 0.00 in 0.00 in (2002)
Month to date snowfall 0.0 0.0  
Since 1 July snowfall 0.0 0.0  
Since 1 September snowfall 0.0 0.0  
Snow Depth 0.00 in    
Sea Level Pressure  
Sea Level Pressure 29.80 in    
Wind  
Wind Speed 8 mph (West)    
Max Wind Speed 15 mph    
Max Gust Speed 20 mph    
Visibility 8 miles    
Events Rain    
T = Trace of Precipitation, MM = Missing Value Source: NWS Daily Summary

Daily Weather History Graph

Daily Weather History Graph

Search for Another Location

Airport or City:

Trip Planner

Search our weather history database for the weather conditions in past years. The results will help you decide how hot, cold, wet, or windy it might be!

Date:

Astronomy

Oct. 15, 2014 Rise Set
Actual Time 7:02 AM CDT 6:18 PM CDT
Civil Twilight 6:36 AM CDT 6:44 PM CDT
Nautical Twilight 6:06 AM CDT 7:14 PM CDT
Astronomical Twilight 5:36 AM CDT 7:44 PM CDT
Moon No Moon Rise 1:41 PM CDT (10/15)
Length of Visible Light 12h 07m
Length of Day
11h 15m
Waning Gibbous, 51% of the Moon is Illuminated
Oct 15
Waning Gibbous
Oct 15
Last Quarter
Oct 23
New
Oct 30
First Quarter
Nov 6
Full

Hourly Weather History & Observations

Time (CDT) Temp. Dew Point Humidity Pressure Visibility Wind Dir Wind Speed Gust Speed Precip Events Conditions
12:18 AM 54.0 °F 52.0 °F 93% 29.75 in 10.0 mi WSW 11.5 mph - N/A   Overcast
12:44 AM 54.0 °F 52.0 °F 93% 29.75 in 5.0 mi WSW 10.4 mph - N/A   Overcast
12:53 AM 54.0 °F 52.0 °F 93% 29.75 in 8.0 mi WSW 10.4 mph - N/A   Overcast
1:02 AM 54.0 °F 52.0 °F 93% 29.75 in 10.0 mi WSW 8.1 mph - N/A   Overcast
1:16 AM 54.0 °F 52.0 °F 93% 29.75 in 10.0 mi WSW 9.2 mph - N/A   Overcast
1:25 AM 54.0 °F 52.0 °F 93% 29.75 in 10.0 mi WSW 9.2 mph - N/A   Overcast
1:32 AM 54.0 °F 52.0 °F 93% 29.75 in 10.0 mi WSW 9.2 mph - N/A   Overcast
1:53 AM 54.0 °F 52.0 °F 93% 29.75 in 10.0 mi SW 9.2 mph - N/A   Overcast
2:04 AM 54.0 °F 52.0 °F 93% 29.75 in 10.0 mi WSW 8.1 mph - N/A   Overcast
2:14 AM 54.0 °F 52.0 °F 93% 29.76 in 10.0 mi WSW 10.4 mph - N/A   Overcast
2:53 AM 54.0 °F 52.0 °F 93% 29.75 in 10.0 mi West 10.4 mph - N/A   Overcast
3:02 AM 54.0 °F 52.0 °F 93% 29.75 in 10.0 mi WSW 9.2 mph - N/A   Overcast
3:16 AM 54.0 °F 51.1 °F 90% 29.75 in 10.0 mi West 9.2 mph - N/A   Overcast
3:36 AM 54.0 °F 52.0 °F 93% 29.75 in 10.0 mi West 8.1 mph - N/A   Overcast
3:44 AM 54.0 °F 52.0 °F 93% 29.75 in 6.0 mi West 9.2 mph - N/A   Overcast
3:49 AM 53.6 °F 51.8 °F 94% 29.75 in 4.0 mi West 9.2 mph - N/A   Overcast
3:53 AM 54.0 °F 52.0 °F 93% 29.75 in 4.0 mi West 10.4 mph - N/A   Overcast
4:21 AM 53.1 °F 52.0 °F 96% 29.76 in 7.0 mi West 8.1 mph - N/A   Overcast
4:53 AM 53.1 °F 52.0 °F 96% 29.76 in 8.0 mi West 9.2 mph - N/A   Overcast
5:25 AM 53.1 °F 52.0 °F 96% 29.77 in 10.0 mi West 8.1 mph - N/A   Overcast
5:53 AM 53.1 °F 52.0 °F 96% 29.78 in 5.0 mi West 8.1 mph - 0.00 in Rain Light Rain
6:06 AM 53.1 °F 52.0 °F 96% 29.78 in 5.0 mi West 6.9 mph - 0.01 in Rain Light Rain
6:14 AM 53.1 °F 52.0 °F 96% 29.78 in 5.0 mi WSW 6.9 mph - 0.01 in Rain Light Rain
6:34 AM 53.1 °F 52.0 °F 96% 29.78 in 6.0 mi West 5.8 mph - 0.01 in Rain Light Rain
6:53 AM 53.1 °F 52.0 °F 96% 29.78 in 10.0 mi West 8.1 mph - 0.01 in   Overcast
7:15 AM 53.1 °F 52.0 °F 96% 29.78 in 8.0 mi West 6.9 mph - N/A   Overcast
7:36 AM 53.1 °F 52.0 °F 96% 29.79 in 4.0 mi West 6.9 mph - N/A   Overcast
7:53 AM 53.1 °F 52.0 °F 96% 29.80 in 8.0 mi West 8.1 mph - N/A   Overcast
8:10 AM 53.1 °F 52.0 °F 96% 29.80 in 2.0 mi West 8.1 mph - N/A   Overcast
8:30 AM 53.1 °F 52.0 °F 96% 29.80 in 6.0 mi West 8.1 mph - N/A   Overcast
8:41 AM 54.0 °F 52.0 °F 93% 29.81 in 10.0 mi West 6.9 mph - N/A   Overcast
8:53 AM 54.0 °F 52.0 °F 93% 29.81 in 10.0 mi West 6.9 mph - N/A   Overcast
9:24 AM 54.0 °F 52.0 °F 93% 29.82 in 10.0 mi West 6.9 mph - N/A   Overcast
9:53 AM 54.0 °F 52.0 °F 93% 29.82 in 10.0 mi West 8.1 mph - N/A   Overcast
10:25 AM 54.0 °F 53.1 °F 97% 29.84 in 2.0 mi West 9.2 mph - 0.00 in Rain Light Rain
10:29 AM 54.0 °F 53.1 °F 97% 29.83 in 2.0 mi West 12.7 mph - 0.01 in Rain Light Rain
10:53 AM 55.0 °F 53.1 °F 93% 29.83 in 2.0 mi West 10.4 mph - 0.01 in Rain Light Rain
11:09 AM 55.0 °F 54.0 °F 96% 29.84 in 4.0 mi West 8.1 mph - 0.00 in   Overcast
11:26 AM 55.4 °F 53.6 °F 94% 29.83 in 10.0 mi West 8.1 mph - N/A   Overcast
11:53 AM 55.9 °F 54.0 °F 93% 29.83 in 10.0 mi West 9.2 mph - 0.00 in   Overcast
12:05 PM 55.0 °F 53.1 °F 93% 29.84 in 9.0 mi West 10.4 mph - N/A   Overcast
12:50 PM 55.4 °F 51.8 °F 88% 29.83 in 10.0 mi West 9.2 mph - N/A   Overcast
12:53 PM 55.9 °F 52.0 °F 87% 29.83 in 10.0 mi West 10.4 mph - N/A   Overcast
1:53 PM 57.0 °F 52.0 °F 83% 29.82 in 10.0 mi WNW 8.1 mph - N/A   Overcast
2:53 PM 57.0 °F 51.1 °F 81% 29.83 in 10.0 mi WNW 8.1 mph - N/A   Overcast
3:16 PM 57.0 °F 50.0 °F 77% 29.82 in 10.0 mi West 10.4 mph - N/A   Overcast
3:39 PM 55.9 °F 50.0 °F 80% 29.82 in 10.0 mi West 9.2 mph - N/A   Overcast
3:53 PM 55.9 °F 50.0 °F 80% 29.83 in 10.0 mi WNW 10.4 mph 19.6 mph N/A   Overcast
4:42 PM 55.0 °F 51.1 °F 86% 29.84 in 5.0 mi WNW 10.4 mph - N/A   Overcast
4:53 PM 54.0 °F 52.0 °F 93% 29.84 in 6.0 mi West 6.9 mph - N/A   Overcast
5:19 PM 55.0 °F 52.0 °F 89% 29.85 in 10.0 mi West 6.9 mph - N/A   Overcast
5:53 PM 55.0 °F 52.0 °F 89% 29.85 in 10.0 mi West 5.8 mph - N/A   Overcast
6:16 PM 54.0 °F 52.0 °F 93% 29.86 in 4.0 mi WNW 8.1 mph - 0.00 in Rain Light Rain
6:26 PM 54.0 °F 53.1 °F 97% 29.86 in 3.0 mi NW 4.6 mph - 0.02 in Rain Rain
6:35 PM 54.0 °F 52.0 °F 93% 29.86 in 7.0 mi WNW 4.6 mph - 0.02 in Rain Light Rain
6:41 PM 54.0 °F 52.0 °F 93% 29.87 in 10.0 mi WNW 3.5 mph - 0.02 in   Overcast
6:53 PM 54.0 °F 52.0 °F 93% 29.87 in 10.0 mi West 4.6 mph - 0.02 in   Overcast
7:53 PM 54.0 °F 52.0 °F 93% 29.88 in 10.0 mi WNW 4.6 mph - N/A   Overcast
8:53 PM 54.0 °F 51.1 °F 90% 29.88 in 10.0 mi WNW 5.8 mph - N/A   Overcast
9:53 PM 54.0 °F 51.1 °F 90% 29.89 in 10.0 mi WNW 4.6 mph - N/A   Overcast
10:53 PM 53.1 °F 51.1 °F 93% 29.88 in 10.0 mi West 5.8 mph - N/A   Overcast
11:53 PM 53.1 °F 51.1 °F 93% 29.87 in 10.0 mi West 5.8 mph - N/A   Overcast